| time (UTC) | temp C | wind direction | speed KPH | gust KPH | rain 1hr cm | rain 24hr cm | rain mn cm | humidity % | barometer mb |
| 20260507132828 | 16 | 88 | 3.2 | 8.0 | 0.00 | 0.00 | 0.00 | 56 | 1003.8 |
| 20260507131828 | 15 | 55 | 1.6 | 3.2 | 0.00 | 0.00 | 0.00 | 57 | 1003.6 |
| 20260507130827 | 15 | 122 | 6.4 | 12.9 | 0.00 | 0.00 | 0.00 | 57 | 1003.8 |
| 20260507125819 | 15 | 113 | 0.0 | 3.2 | 0.00 | 0.00 | 0.00 | 58 | 1004.0 |
| 20260507124827 | 15 | 66 | 0.0 | 3.2 | 0.00 | 0.00 | 0.00 | 60 | 1004.0 |
| 20260507123827 | 14 | 0.0 | 0.0 | 0.00 | 0.00 | 0.00 | 60 | 1004.0 | |
| 20260507122827 | 13 | 0.0 | 0.0 | 0.00 | 0.00 | 0.00 | 61 | 1003.9 | |
| 20260507121819 | 13 | 131 | 1.6 | 8.0 | 0.00 | 0.00 | 0.00 | 64 | 1003.9 |
| 20260507120827 | 13 | 0.0 | 0.0 | 0.00 | 0.00 | 0.00 | 65 | 1004.1 | |
| 20260507115827 | 13 | 0.0 | 0.0 | 0.00 | 0.00 | 0.00 | 64 | 1004.3 | |
| 20260507114827 | 13 | 0.0 | 0.0 | 0.00 | 0.00 | 0.00 | 64 | 1004.3 | |
| 20260507113820 | 13 | 0.0 | 0.0 | 0.00 | 0.00 | 0.00 | 63 | 1004.3 | |
| 20260507112828 | 13 | 0.0 | 0.0 | 0.00 | 0.00 | 0.00 | 65 | 1004.3 | |
| 20260507111828 | 13 | 5 | 1.6 | 3.2 | 0.00 | 0.00 | 0.00 | 65 | 1004.3 |
| 20260507110827 | 13 | 126 | 1.6 | 8.0 | 0.00 | 0.00 | 0.00 | 63 | 1004.3 |
| 20260507105848 | 13 | 0.0 | 0.0 | 0.00 | 0.00 | 0.00 | 63 | 1004.7 | |
| 20260507104827 | 13 | 42 | 1.6 | 3.2 | 0.00 | 0.00 | 0.00 | 64 | 1004.7 |
| 20260507103839 | 13 | 135 | 1.6 | 8.0 | 0.00 | 0.00 | 0.00 | 66 | 1004.7 |
| 20260507102827 | 13 | 59 | 1.6 | 3.2 | 0.00 | 0.00 | 0.00 | 66 | 1004.7 |
| 20260507101827 | 13 | 91 | 1.6 | 3.2 | 0.00 | 0.00 | 0.00 | 67 | 1004.7 |
| 20260507100827 | 13 | 114 | 1.6 | 3.2 | 0.00 | 0.00 | 0.00 | 66 | 1004.7 |
| 20260507095819 | 13 | 73 | 1.6 | 3.2 | 0.00 | 0.00 | 0.00 | 65 | 1004.7 |
| 20260507094827 | 13 | 131 | 4.8 | 8.0 | 0.00 | 0.00 | 0.00 | 65 | 1004.7 |
| 20260507093827 | 13 | 0.0 | 0.0 | 0.00 | 0.00 | 0.00 | 65 | 1004.7 | |
| 20260507092827 | 13 | 95 | 3.2 | 8.0 | 0.00 | 0.00 | 0.00 | 66 | 1004.7 |
| 20260507091819 | 13 | 182 | 1.6 | 8.0 | 0.00 | 0.00 | 0.00 | 67 | 1004.7 |
| 20260507090827 | 13 | 33 | 1.6 | 3.2 | 0.00 | 0.00 | 0.00 | 68 | 1004.7 |
| 20260507085827 | 12 | 0.0 | 0.0 | 0.00 | 0.00 | 0.00 | 69 | 1004.7 | |
| 20260507084827 | 12 | 64 | 0.0 | 3.2 | 0.00 | 0.00 | 0.00 | 71 | 1004.7 |
| 20260507083839 | 12 | 134 | 4.8 | 8.0 | 0.00 | 0.00 | 0.00 | 71 | 1004.7 |
| 20260507082827 | 12 | 0.0 | 0.0 | 0.00 | 0.00 | 0.00 | 72 | 1004.7 | |
| 20260507081827 | 12 | 0.0 | 0.0 | 0.00 | 0.00 | 0.00 | 71 | 1004.7 | |
| 20260507080827 | 12 | 62 | 1.6 | 8.0 | 0.00 | 0.00 | 0.00 | 74 | 1004.7 |
| 20260507075819 | 12 | 0.0 | 0.0 | 0.00 | 0.00 | 0.00 | 73 | 1004.7 | |
| 20260507074828 | 12 | 67 | 1.6 | 3.2 | 0.00 | 0.00 | 0.00 | 73 | 1004.7 |
| 20260507073848 | 11 | 116 | 1.6 | 3.2 | 0.00 | 0.00 | 0.00 | 70 | 1004.7 |
| 20260507072937 | 11 | 113 | 0.0 | 3.2 | 0.00 | 0.00 | 0.00 | 72 | 1004.8 |
| 20260507071819 | 10 | 355 | 0.0 | 3.2 | 0.00 | 0.00 | 0.00 | 74 | 1005.0 |
| 20260507070827 | 9 | 94 | 1.6 | 3.2 | 0.00 | 0.00 | 0.00 | 75 | 1004.8 |
| 20260507065828 | 8 | 0.0 | 0.0 | 0.00 | 0.00 | 0.00 | 77 | 1004.8 | |
| 20260507064827 | 8 | 0.0 | 0.0 | 0.00 | 0.00 | 0.00 | 79 | 1004.6 | |
| 20260507063819 | 7 | 0.0 | 0.0 | 0.00 | 0.00 | 0.00 | 82 | 1004.6 | |
| 20260507062827 | 7 | 0.0 | 0.0 | 0.00 | 0.00 | 0.00 | 82 | 1004.8 | |
| 20260507061828 | 6 | 0.0 | 0.0 | 0.00 | 0.00 | 0.00 | 87 | 1004.6 | |
| 20260507060847 | 4 | 0.0 | 0.0 | 0.00 | 0.00 | 0.00 | 93 | 1004.6 | |
| 20260507055839 | 3 | 0.0 | 0.0 | 0.00 | 0.00 | 0.00 | 95 | 1004.6 | |
| 20260507054847 | 3 | 0.0 | 0.0 | 0.00 | 0.00 | 0.00 | 95 | 1004.5 | |
| 20260507053820 | 2 | 0.0 | 0.0 | 0.00 | 0.00 | 0.00 | 96 | 1004.5 | |
| 20260507052827 | 2 | 0.0 | 0.0 | 0.00 | 0.00 | 0.00 | 96 | 1004.4 | |
| 20260507051828 | 2 | 0.0 | 0.0 | 0.00 | 0.00 | 0.00 | 96 | 1004.2 | |
| 20260507050827 | 1 | 0.0 | 0.0 | 0.00 | 0.00 | 0.00 | 96 | 1003.8 | |
| 20260507045820 | 1 | 0.0 | 0.0 | 0.00 | 0.00 | 0.00 | 96 | 1004.2 | |
| 20260507044827 | 1 | 0.0 | 0.0 | 0.00 | 0.00 | 0.00 | 96 | 1004.2 | |
| 20260507043827 | 1 | 0.0 | 0.0 | 0.00 | 0.00 | 0.00 | 96 | 1004.0 | |
| 20260507042827 | 1 | 0.0 | 0.0 | 0.00 | 0.00 | 0.00 | 96 | 1004.1 | |
| 20260507041819 | 1 | 0.0 | 0.0 | 0.00 | 0.00 | 0.00 | 96 | 1004.2 | |
| 20260507040847 | 1 | 0.0 | 0.0 | 0.00 | 0.00 | 0.00 | 96 | 1004.0 | |
| 20260507035827 | 1 | 0.0 | 0.0 | 0.00 | 0.00 | 0.00 | 96 | 1004.2 | |
| 20260507034847 | 1 | 0.0 | 0.0 | 0.00 | 0.00 | 0.00 | 96 | 1004.2 | |
| 20260507033819 | 1 | 0.0 | 0.0 | 0.00 | 0.00 | 0.00 | 96 | 1004.2 | |
| 20260507032827 | 1 | 0.0 | 0.0 | 0.00 | 0.00 | 0.00 | 96 | 1004.2 | |
| 20260507031827 | 2 | 0.0 | 0.0 | 0.00 | 0.00 | 0.00 | 95 | 1004.2 | |
| 20260507030846 | 2 | 0.0 | 0.0 | 0.00 | 0.00 | 0.00 | 95 | 1004.3 | |
| 20260507025819 | 2 | 0.0 | 0.0 | 0.00 | 0.00 | 0.00 | 95 | 1004.2 | |
| 20260507024827 | 2 | 0.0 | 0.0 | 0.00 | 0.00 | 0.00 | 95 | 1004.0 | |
| 20260507023828 | 2 | 0.0 | 0.0 | 0.00 | 0.00 | 0.00 | 95 | 1004.0 | |
| 20260507022826 | 2 | 0.0 | 0.0 | 0.00 | 0.00 | 0.00 | 95 | 1003.9 | |
| 20260507021819 | 2 | 0.0 | 0.0 | 0.00 | 0.00 | 0.00 | 94 | 1003.9 | |
| 20260507020828 | 2 | 0.0 | 0.0 | 0.00 | 0.00 | 0.00 | 94 | 1004.2 | |
| 20260507015827 | 2 | 0.0 | 0.0 | 0.00 | 0.00 | 0.00 | 94 | 1004.2 | |
| 20260507014826 | 2 | 0.0 | 0.0 | 0.00 | 0.00 | 0.00 | 94 | 1004.2 | |
| 20260507013839 | 2 | 0.0 | 0.0 | 0.00 | 0.00 | 0.00 | 94 | 1004.2 | |
| 20260507012847 | 2 | 0.0 | 0.0 | 0.00 | 0.00 | 0.00 | 94 | 1004.2 | |
| 20260507011827 | 2 | 0.0 | 0.0 | 0.00 | 0.00 | 0.00 | 94 | 1004.2 | |
| 20260507010826 | 2 | 0.0 | 0.0 | 0.00 | 0.00 | 0.00 | 94 | 1004.2 | |
| 20260507005819 | 2 | 0.0 | 0.0 | 0.00 | 0.00 | 0.00 | 93 | 1004.2 | |
| 20260507004827 | 2 | 0.0 | 0.0 | 0.00 | 0.00 | 0.00 | 93 | 1004.2 | |
| 20260507003827 | 3 | 0.0 | 0.0 | 0.00 | 0.00 | 0.00 | 93 | 1004.4 | |
| 20260507002846 | 3 | 0.0 | 0.0 | 0.00 | 0.00 | 0.00 | 93 | 1004.5 | |
| 20260507001819 | 3 | 0.0 | 0.0 | 0.00 | 0.00 | 0.00 | 92 | 1004.6 | |
| 20260507000827 | 3 | 0.0 | 0.0 | 0.00 | 0.00 | 0.00 | 92 | 1004.4 | |
| 20260506235827 | 3 | 0.0 | 0.0 | 0.00 | 0.00 | 0.00 | 91 | 1004.6 | |
| 20260506234827 | 3 | 0.0 | 0.0 | 0.00 | 0.00 | 0.00 | 91 | 1004.5 | |
| 20260506233848 | 3 | 0.0 | 0.0 | 0.00 | 0.00 | 0.00 | 90 | 1004.5 | |
| 20260506232827 | 4 | 0.0 | 0.0 | 0.00 | 0.00 | 0.00 | 90 | 1004.6 | |
| 20260506231827 | 4 | 0.0 | 0.0 | 0.00 | 0.00 | 0.00 | 90 | 1004.6 | |
| 20260506230826 | 4 | 0.0 | 0.0 | 0.00 | 0.00 | 0.00 | 90 | 1004.6 | |
| 20260506225839 | 5 | 0.0 | 0.0 | 0.00 | 0.00 | 0.00 | 90 | 1004.6 | |
| 20260506224827 | 5 | 0.0 | 0.0 | 0.00 | 0.00 | 0.00 | 89 | 1004.6 | |
| 20260506223828 | 5 | 0.0 | 0.0 | 0.00 | 0.00 | 0.00 | 89 | 1004.6 | |
| 20260506222846 | 5 | 0.0 | 0.0 | 0.00 | 0.00 | 0.00 | 89 | 1004.6 | |
| 20260506221818 | 5 | 0.0 | 0.0 | 0.00 | 0.00 | 0.00 | 88 | 1004.6 | |
| 20260506220827 | 5 | 0.0 | 0.0 | 0.00 | 0.00 | 0.00 | 88 | 1004.6 | |
| 20260506215827 | 5 | 0.0 | 0.0 | 0.00 | 0.00 | 0.00 | 87 | 1004.6 | |
| 20260506214826 | 5 | 0.0 | 0.0 | 0.00 | 0.00 | 0.00 | 87 | 1004.6 | |
| 20260506213818 | 5 | 0.0 | 0.0 | 0.00 | 0.00 | 0.00 | 85 | 1004.6 | |
| 20260506212848 | 6 | 0.0 | 0.0 | 0.00 | 0.00 | 0.00 | 84 | 1004.6 | |
| 20260506211827 | 6 | 0.0 | 0.0 | 0.00 | 0.00 | 0.00 | 83 | 1004.6 | |
| 20260506210826 | 6 | 0.0 | 0.0 | 0.00 | 0.00 | 0.00 | 83 | 1004.6 | |
| 20260506205818 | 6 | 0.0 | 0.0 | 0.00 | 0.00 | 0.00 | 81 | 1004.6 | |
| 20260506204827 | 7 | 0.0 | 0.0 | 0.00 | 0.00 | 0.00 | 81 | 1004.6 | |
| 20260506203827 | 7 | 0.0 | 0.0 | 0.00 | 0.00 | 0.00 | 80 | 1004.4 | |
| 20260506202826 | 7 | 0.0 | 0.0 | 0.00 | 0.00 | 0.00 | 79 | 1004.3 | |
| 20260506201818 | 7 | 0.0 | 0.0 | 0.00 | 0.00 | 0.00 | 79 | 1004.3 | |
| 20260506200827 | 8 | 139 | 1.6 | 3.2 | 0.00 | 0.00 | 0.00 | 77 | 1004.3 |
| 20260506195827 | 8 | 160 | 3.2 | 8.0 | 0.00 | 0.00 | 0.00 | 76 | 1004.0 |
| 20260506194826 | 8 | 0.0 | 0.0 | 0.00 | 0.00 | 0.00 | 75 | 1004.0 | |
| 20260506193839 | 9 | 132 | 8.0 | 12.9 | 0.00 | 0.00 | 0.00 | 75 | 1004.0 |
| 20260506192827 | 9 | 0.0 | 0.0 | 0.00 | 0.00 | 0.00 | 73 | 1004.0 | |
| 20260506191827 | 9 | 150 | 1.6 | 3.2 | 0.00 | 0.00 | 0.00 | 73 | 1003.9 |
| 20260506190826 | 9 | 0.0 | 0.0 | 0.00 | 0.00 | 0.00 | 72 | 1003.9 | |
| 20260506185818 | 9 | 153 | 0.0 | 3.2 | 0.00 | 0.00 | 0.00 | 72 | 1003.9 |
| 20260506184827 | 9 | 76 | 0.0 | 3.2 | 0.00 | 0.00 | 0.00 | 73 | 1003.9 |
| 20260506183830 | 10 | 0.0 | 0.0 | 0.00 | 0.00 | 0.00 | 72 | 1003.9 | |
| 20260506182826 | 10 | 0.0 | 0.0 | 0.00 | 0.00 | 0.00 | 70 | 1003.9 | |
| 20260506181818 | 10 | 73 | 1.6 | 3.2 | 0.00 | 0.00 | 0.00 | 70 | 1003.9 |
| 20260506180848 | 10 | 0.0 | 0.0 | 0.00 | 0.00 | 0.00 | 69 | 1003.5 | |
| 20260506175827 | 10 | 0.0 | 0.0 | 0.00 | 0.00 | 0.00 | 69 | 1003.8 | |
| 20260506174831 | 10 | 75 | 0.0 | 3.2 | 0.00 | 0.00 | 0.00 | 69 | 1003.5 |
| 20260506173818 | 10 | 83 | 4.8 | 8.0 | 0.00 | 0.00 | 0.00 | 68 | 1003.5 |
| 20260506172827 | 10 | 0.0 | 0.0 | 0.00 | 0.00 | 0.00 | 68 | 1003.5 | |
| 20260506171827 | 10 | 71 | 0.0 | 3.2 | 0.00 | 0.00 | 0.00 | 67 | 1003.5 |
| 20260506170826 | 11 | 34 | 0.0 | 3.2 | 0.00 | 0.00 | 0.00 | 67 | 1003.2 |
| 20260506165838 | 11 | 102 | 1.6 | 3.2 | 0.00 | 0.00 | 0.00 | 65 | 1003.5 |
| 20260506164828 | 11 | 70 | 1.6 | 3.2 | 0.00 | 0.00 | 0.00 | 64 | 1003.2 |
| 20260506163827 | 11 | 83 | 1.6 | 3.2 | 0.00 | 0.00 | 0.00 | 63 | 1003.5 |
| 20260506162826 | 11 | 0.0 | 0.0 | 0.00 | 0.00 | 0.00 | 64 | 1003.2 | |
| 20260506161818 | 11 | 114 | 1.6 | 3.2 | 0.00 | 0.00 | 0.00 | 64 | 1003.3 |
| 20260506160827 | 12 | 23 | 1.6 | 8.0 | 0.00 | 0.00 | 0.00 | 64 | 1003.5 |
| 20260506155827 | 12 | 112 | 1.6 | 8.0 | 0.00 | 0.00 | 0.00 | 61 | 1003.6 |
| 20260506154826 | 12 | 90 | 0.0 | 3.2 | 0.00 | 0.00 | 0.00 | 60 | 1003.3 |
| 20260506153838 | 12 | 68 | 3.2 | 8.0 | 0.00 | 0.00 | 0.00 | 60 | 1003.3 |
| 20260506152847 | 12 | 143 | 3.2 | 8.0 | 0.00 | 0.00 | 0.00 | 62 | 1003.3 |
| 20260506151827 | 11 | 109 | 1.6 | 3.2 | 0.00 | 0.00 | 0.00 | 64 | 1003.6 |
| 20260506150826 | 12 | 352 | 6.4 | 12.9 | 0.00 | 0.00 | 0.00 | 65 | 1003.7 |
| 20260506145818 | 12 | 95 | 0.0 | 3.2 | 0.00 | 0.00 | 0.00 | 65 | 1003.3 |
| 20260506144827 | 11 | 189 | 1.6 | 8.0 | 0.00 | 0.00 | 0.00 | 62 | 1003.5 |
| 20260506143827 | 11 | 70 | 3.2 | 8.0 | 0.00 | 0.00 | 0.00 | 63 | 1003.7 |
| 20260506142826 | 12 | 28 | 3.2 | 12.9 | 0.00 | 0.00 | 0.00 | 65 | 1003.7 |
| 20260506141818 | 12 | 29 | 3.2 | 8.0 | 0.00 | 0.00 | 0.00 | 63 | 1003.7 |
| 20260506140907 | 12 | 51 | 3.2 | 8.0 | 0.00 | 0.00 | 0.00 | 63 | 1003.7 |
| 20260506135847 | 12 | 126 | 3.2 | 8.0 | 0.00 | 0.00 | 0.00 | 62 | 1003.4 |
| 20260506134826 | 12 | 12 | 9.7 | 16.1 | 0.00 | 0.00 | 0.00 | 61 | 1003.6 |
| 20260506133818 | 12 | 10 | 4.8 | 8.0 | 0.00 | 0.00 | 0.00 | 63 | 1003.7 |